COSMOS 2295 (GLONASS)

Satellite information

Favourite Embed

Satellite Type and Status

PAYLOADIN ORBIT

Key statistics

Satellite COSMOS 2295 (GLONASS) at a glance.

Uptime

11127

Days in orbit

Revolutions

≈ 2.1

Per day

Orbit

MEO

Medium Earth Orbit

Inclination

64.6

Latest

Satellite identification and parameters

Extended collection of information and parameters for COSMOS 2295 (GLONASS).

Object identification

Identified? True

Debris? False

Object name: COSMOS 2295 (GLONASS)

International designator: 1994-076A

Object number (NORAD): 23396

Object ID (CCSDS): 23396

Country: COMMONWEALTH OF INDEPENDENT STATES (CIS)

Current information (Y/N): Y

RCS size: LARGE

Orbital parameters

Period: 675.731 minutes

Inclination: 64.6115 deg

SMA: 25507.977 km

Apoapsis: 19226.114 km

Periapsis: 19033.57 km

RAAN: 83.0885 deg

Eccentricy: 0.0037742

Argument of periapsis: 204.0544 deg

Mean anomaly: 340.2264 deg

Mean motion: 2.13102595 rev/day

Mean motion (dot): 0.00000003 rev/day2

B* drag term: 0.0 1/REarth

Two-line elements (TLE)

Creation date: May 8, 2025, 3:01 a.m.

Reference frame: TEME

Reference center: EARTH

Epoch: May 7, 2025, 6:51 a.m. UTC

TLE line 0: 0 COSMOS 2295 (GLONASS)

TLE line 1: 1 23396U 94076A 25127.28586409 .00000003 00000-0 00000-0 0 9991

TLE line 2: 2 23396 64.6115 83.0885 0037742 204.0544 340.2264 2.13102595236855

Live tracking on map

Real-time ground track for satellite COSMOS 2295 (GLONASS).

In-orbit conjunctions

There are no conjunctions computed for COSMOS 2295 (GLONASS), at the moment. Check back to stay up to date, as we update our databases every day.

Go to all conjunctions

Associated space launch

GLONASS navigation satellites

COSMOS 2295 (GLONASS) was lifted into orbit during the mission ‘Proton | Uragan 60 to 62’, on board a Proton space rocket.

The launch took place on Nov. 20, 1994, 12:39 a.m. from 200/39 (200L).

For more information about the launch, click the button.

Launch to space Proton | Uragan 60 to 62
Proton | Uragan 60 to 62

Agency: N/A

Status: Launch Successful

Launch date: Nov. 20, 1994, 12:39 a.m. UTC

Rocket: Proton

Launch pad: 200/39 (200L)

Location: Baikonur Cosmodrome, Republic of Kazakhstan

...

Latest news about this satellite

There are no fresh news available about this satellite. Check back as we update our databases every day.


Newsletter sign-up

Weekly statistics, charts and insights to help you stay on top of the space industry.